[[{"header":{"parameterUnit":"m.s-1","parameterCategory":1,"la1":30.2991,"la2":30.254,"lo1":-89.0895,"lo2":-89.0444,"dy":0.0017,"dx":0.0017,"nx":28,"ny":28,"refTime":"2024-04-07T03:00:00:Z","depth":0,"parameterNumber":2,"parameterNumberName":"U-component_of_WINDS"},"data":[0,0,0,0,0,0,0,0,0,0,0,0,0,0,0,0,0,0,0,0,0,0,0,0,0,0,0,0,0,0,0,0,0,0,0,0,0,0,0,0,0,0,0,0,0,0,0,0,0,0,0,0,0,0,0,0,0,0,-3.0385,-3.0386,0,-3.0461,-3.0462,-3.0463,-3.048,-3.0479,-3.0479,-3.0478,-3.0558,-3.0561,-3.0563,0,0,0,0,0,0,0,0,0,0,0,0,0,-3.0254,-3.0256,-3.0385,-3.0386,-3.0387,-3.0461,-3.0462,-3.0463,-3.048,-3.0479,-3.0479,-3.0478,-3.0557,-3.056,-3.0563,0,0,0,0,0,0,0,0,0,0,0,0,0,-3.0319,-3.0257,-3.0385,-3.0404,-3.0406,-3.0461,-3.0462,-3.0464,-3.048,-3.0479,-3.0478,-3.0478,-3.0556,-3.056,-3.0564,-3.0605,0,0,-3.0576,-3.0578,0,0,0,0,0,0,0,0,-3.0315,-3.0323,-3.04,-3.0403,-3.0406,-3.046,-3.0445,-3.0511,-3.048,-3.0452,-3.0478,-3.0477,-3.0526,-3.0533,-3.0549,-3.0609,-3.0612,-3.0576,-3.0579,-3.058,-3.0582,0,0,0,0,0,0,0,-3.031,-3.032,-3.0415,-3.0401,-3.0405,-3.0409,-3.0417,-3.0458,-3.0493,-3.0455,-3.0456,-3.0465,-3.0528,-3.0545,-3.0551,-3.0613,-3.0576,-3.058,-3.0582,-3.0584,-3.071,-3.0711,0,0,0,0,0,0,-3.0302,-3.0316,-3.0413,-3.0417,-3.0357,-3.0412,-3.0421,-3.0444,-3.0493,-3.0499,-3.0465,-3.0465,-3.0539,-3.0546,-3.0554,-3.0604,-3.058,-3.0584,-3.0586,-3.0709,-3.071,-3.0711,0,0,0,0,0,0,-3.0299,-3.0311,-3.041,-3.0367,-3.038,-3.0415,-3.044,-3.0446,-3.0463,-3.0501,-3.0507,-3.0477,-3.0538,-3.0548,-3.0592,-3.0607,-3.0586,-3.059,-3.0708,-3.0709,-3.0711,-3.0706,0,0,0,0,0,0,-3.0296,-3.031,-3.0325,-3.0367,-3.0382,-3.0446,-3.0441,-3.0448,-3.047,-3.047,-3.0513,-3.0519,-3.0538,-3.0586,-3.0596,-3.0612,-3.0593,-3.0707,-3.0708,-3.071,-3.0705,-3.0707,-3.0709,0,0,0,0,0,-3.0291,-3.0322,-3.0326,-3.0338,-3.0403,-3.0447,-3.0456,-3.0476,-3.0471,-3.0487,-3.0511,-3.0518,-3.0604,-3.059,-3.0602,-3.0619,-3.0706,-3.0708,-3.071,-3.0704,-3.0706,-3.0709,0,0,0,0,0,0,-3.0281,-3.0327,-3.0333,-3.0378,-3.0408,-3.045,-3.0471,-3.0479,-3.0512,-3.0511,-3.0536,-3.0545,-3.0587,-3.0608,-3.0592,-3.0661,-3.0655,-3.0659,-3.0646,-3.0649,-3.0651,-3.0644,-3.0596,0,0,0,0,0,-3.0284,-3.0316,-3.0355,-3.0391,-3.0406,-3.0436,-3.0456,-3.0469,-3.0502,-3.0515,-3.0542,-3.0574,-3.0608,-3.063,-3.0663,-3.0708,-3.0717,-3.0726,-3.0728,-3.0729,-3.0733,-3.0757,-3.0761,-3.0718,-3.0718,-3.0718,0,0,-3.0291,-3.032,-3.0339,-3.039,-3.0415,-3.0447,-3.0446,-3.0481,-3.0505,-3.052,-3.0562,-3.0584,-3.0621,-3.0664,-3.0685,-3.0683,-3.0746,-3.0732,-3.0733,-3.0736,-3.0759,-3.0763,-3.0767,-3.072,-3.072,-3.0719,0,0,-3.0319,-3.0345,-3.0377,-3.0402,-3.0439,-3.0459,-3.0467,-3.0507,-3.0521,-3.0564,-3.0576,-3.0605,-3.0664,-3.0689,-3.071,-3.0747,-3.0754,-3.0757,-3.0767,-3.079,-3.0794,-3.0797,-3.0809,-3.0813,-3.0761,-3.0761,-3.0761,0,-3.0323,-3.0371,-3.0393,-3.0426,-3.0448,-3.0463,-3.0495,-3.0519,-3.0565,-3.058,-3.0577,-3.065,-3.0676,-3.0725,-3.0734,-3.0751,-3.076,-3.0752,-3.0791,-3.0795,-3.0798,-3.081,-3.0814,-3.0761,-3.0761,-3.0761,-3.0761,0,-3.0373,-3.0407,-3.0428,-3.0472,-3.0496,-3.0529,-3.0556,-3.0578,-3.0589,-3.0609,-3.0652,-3.0684,-3.0723,-3.0737,-3.0749,-3.0788,-3.0785,-3.0786,-3.078,-3.0802,-3.0813,-3.0818,-3.0761,-3.0761,-3.0761,-3.0761,0,0,-3.0397,-3.0452,-3.0459,-3.0479,-3.0521,-3.0547,-3.0581,-3.0619,-3.0637,-3.0669,-3.0697,-3.0746,-3.0747,-3.077,-3.0785,-3.0806,-3.0832,-3.0805,-3.0806,-3.0808,-3.0876,-3.0873,-3.0878,-3.0837,-3.0838,-3.0839,-3.0872,0,-3.0429,-3.0489,-3.0509,-3.0558,-3.0589,-3.0603,-3.0632,-3.0661,-3.0681,-3.071,-3.0732,-3.0765,-3.0765,-3.0779,-3.08,-3.0824,-3.0846,-3.0822,-3.0863,-3.0864,-3.0852,-3.0884,-3.0882,-3.0912,-3.0877,-3.0878,-3.0878,0,-3.0475,-3.0506,-3.0558,-3.0595,-3.0609,-3.0635,-3.0671,-3.0699,-3.0732,-3.0745,-3.077,-3.0783,-3.0819,-3.0811,-3.086,-3.0843,-3.0862,-3.0876,-3.0878,-3.0881,-3.0872,-3.0888,-3.0922,-3.0926,-3.0886,-3.0885,-3.0885,0,-3.0485,-3.0541,-3.0578,-3.0595,-3.064,-3.0657,-3.0677,-3.0709,-3.0731,-3.0763,-3.0777,-3.0813,-3.0832,-3.0859,-3.0882,-3.0874,-3.0928,-3.0923,-3.0939,-3.0939,-3.0949,-3.0948,-3.0986,-3.0963,-3.0963,-3.0963,-3.0963,0,-3.0518,-3.0549,-3.0583,-3.0606,-3.0641,-3.0664,-3.0699,-3.0719,-3.0748,-3.0775,-3.0791,-3.0816,-3.0845,-3.0874,-3.0892,-3.0929,-3.0938,-3.0949,-3.0954,-3.0947,-3.0946,-3.0959,-3.0957,-3.0964,-3.0964,-3.0964,-3.0963,0,-3.0535,-3.056,-3.0602,-3.064,-3.0651,-3.0675,-3.0708,-3.0731,-3.0751,-3.0786,-3.0795,-3.0827,-3.0862,-3.0888,-3.0934,-3.0946,-3.0985,-3.099,-3.0973,-3.0975,-3.099,-3.0988,-3.1036,-3.1043,-3.1017,-3.1017,-3.1017,0,-3.0554,-3.0578,-3.0619,-3.0638,-3.0657,-3.0688,-3.071,-3.0734,-3.0755,-3.0795,-3.0813,-3.0849,-3.0879,-3.0935,-3.0962,-3.0997,-3.1002,-3.1016,-3.1007,-3.1,-3.1001,-3.0998,-3.1,-3.1017,-3.1018,-3.1018,-3.1018,0,-3.0585,-3.0595,-3.0625,-3.0659,-3.0684,-3.0713,-3.0741,-3.0756,-3.0785,-3.0809,-3.0844,-3.0868,-3.0914,-3.0949,-3.0987,-3.1007,-3.1017,-3.1021,-3.1026,-3.1019,-3.1008,-3.1013,-3.0975,-3.1019,-3.1019,-3.1019,-3.1019,-3.1019,-3.0603,-3.0624,-3.0656,-3.0688,-3.0712,-3.0738,-3.0761,-3.0784,-3.0814,-3.0853,-3.0865,-3.0902,-3.0934,-3.0985,-3.1007,-3.1036,-3.1035,-3.1043,-3.1045,-3.1047,-3.1046,-3.1004,-3.1043,-3.1043,-3.1043,-3.1043,-3.1043,0,-3.0633,-3.0654,-3.0684,-3.0722,-3.0748,-3.0755,-3.0786,-3.0807,-3.0839,-3.0868,-3.0897,-3.0938,-3.0972,-3.1002,-3.1038,-3.1055,-3.1061,-3.1064,-3.1062,-3.1067,-3.1045,-3.1036,-3.1059,-3.1059,-3.1059,-3.1059,-3.1059,-3.1059,-3.0651,-3.0687,-3.0702,-3.0749,-3.0771,-3.0806,-3.0823,-3.0847,-3.087,-3.0915,-3.0943,-3.0962,-3.0991,-3.1029,-3.1061,-3.1069,-3.1081,-3.1083,-3.1091,-3.107,-3.1068,-3.1066,-3.1058,-3.1085,-3.1085,-3.1111,-3.1111,-3.1111]},{"header":{"parameterUnit":"m.s-1","parameterCategory":1,"la1":30.2991,"la2":30.254,"lo1":-89.0895,"lo2":-89.0444,"dy":0.0017,"dx":0.0017,"nx":28,"ny":28,"refTime":"2024-04-07T03:00:00:Z","depth":0,"parameterNumber":3,"parameterNumberName":"V-component_of_WINDS"},"data":[0,0,0,0,0,0,0,0,0,0,0,0,0,0,0,0,0,0,0,0,0,0,0,0,0,0,0,0,0,0,0,0,0,0,0,0,0,0,0,0,0,0,0,0,0,0,0,0,0,0,0,0,0,0,0,0,0,0,3.9417,3.9417,0,3.9405,3.9405,3.9404,3.9375,3.9374,3.9373,3.9373,3.9359,3.936,3.936,0,0,0,0,0,0,0,0,0,0,0,0,0,3.9415,3.9415,3.9417,3.9417,3.9417,3.9405,3.9405,3.9404,3.9375,3.9374,3.9373,3.9372,3.9359,3.936,3.936,0,0,0,0,0,0,0,0,0,0,0,0,0,3.941,3.9415,3.9417,3.9401,3.9399,3.9405,3.9405,3.9404,3.9375,3.9374,3.9373,3.9372,3.9359,3.936,3.936,3.9381,0,0,3.9361,3.9361,0,0,0,0,0,0,0,0,3.9411,3.9411,3.9403,3.9402,3.94,3.939,3.9399,3.9396,3.9375,3.9384,3.9373,3.9372,3.937,3.937,3.9369,3.938,3.9379,3.9361,3.9361,3.9361,3.9361,0,0,0,0,0,0,0,3.9411,3.9411,3.9412,3.9403,3.9401,3.9394,3.9392,3.9398,3.9383,3.9383,3.9381,3.938,3.9369,3.9369,3.9369,3.9379,3.9361,3.9361,3.9361,3.9362,3.9407,3.9408,0,0,0,0,0,0,3.9414,3.9411,3.9413,3.9412,3.9403,3.9394,3.9393,3.9394,3.9382,3.938,3.9381,3.9379,3.9369,3.9369,3.9368,3.9392,3.9361,3.9362,3.9362,3.9406,3.9407,3.9408,0,0,0,0,0,0,3.9414,3.9414,3.9413,3.9411,3.941,3.9395,3.9398,3.9395,3.9394,3.9381,3.9378,3.9384,3.9368,3.9368,3.9378,3.9392,3.9362,3.9362,3.9405,3.9406,3.9408,3.9441,0,0,0,0,0,0,3.9414,3.9414,3.9422,3.9411,3.9411,3.9423,3.9398,3.9395,3.9395,3.9392,3.9382,3.938,3.9368,3.9378,3.9378,3.9391,3.9362,3.9404,3.9406,3.9407,3.9438,3.9443,3.9447,0,0,0,0,0,3.9414,3.9431,3.9423,3.9423,3.942,3.9424,3.9423,3.9409,3.9396,3.9404,3.9395,3.938,3.939,3.9379,3.9379,3.9393,3.9403,3.9405,3.9407,3.9436,3.9442,3.9447,0,0,0,0,0,0,3.9444,3.943,3.942,3.9434,3.9431,3.9419,3.9428,3.9416,3.9415,3.9412,3.9394,3.9392,3.9405,3.94,3.9388,3.9413,3.9394,3.9396,3.9416,3.9421,3.9426,3.9427,3.9363,0,0,0,0,0,3.9452,3.9457,3.9444,3.9458,3.9457,3.9443,3.9444,3.9434,3.9429,3.9427,3.9419,3.9415,3.9417,3.9419,3.942,3.9437,3.9435,3.9447,3.9451,3.9455,3.9458,3.9467,3.9473,3.9416,3.9416,3.9416,0,0,3.9469,3.9462,3.9466,3.9464,3.946,3.9465,3.9442,3.9448,3.9452,3.9428,3.9437,3.9431,3.9426,3.944,3.9446,3.9436,3.9473,3.9458,3.9461,3.9462,3.947,3.9476,3.9481,3.9417,3.9417,3.9417,0,0,3.9503,3.9498,3.9509,3.9506,3.95,3.9491,3.9494,3.9484,3.948,3.9489,3.9471,3.9476,3.948,3.9477,3.9475,3.9509,3.9496,3.951,3.9534,3.9543,3.9548,3.9552,3.9565,3.9569,3.9513,3.9513,3.9513,0,3.9525,3.9532,3.9517,3.9525,3.9525,3.9504,3.9516,3.9513,3.9508,3.9508,3.9497,3.9503,3.9497,3.9511,3.9519,3.9519,3.9522,3.9511,3.9549,3.9552,3.9556,3.9568,3.9573,3.9515,3.9514,3.9514,3.9514,0,3.956,3.9565,3.9575,3.9572,3.9572,3.9582,3.9569,3.9572,3.9561,3.9553,3.9563,3.9556,3.9556,3.9559,3.9548,3.9571,3.9565,3.9552,3.9532,3.9563,3.9574,3.9579,3.9517,3.9517,3.9516,3.9516,0,0,3.9611,3.96,3.9604,3.9602,3.9595,3.9599,3.9608,3.9608,3.9612,3.9609,3.9617,3.9621,3.9609,3.9608,3.9597,3.9605,3.9634,3.9591,3.959,3.9599,3.9659,3.967,3.9676,3.9624,3.9625,3.9626,3.966,0,3.9644,3.9659,3.9646,3.9664,3.9669,3.965,3.9658,3.9654,3.9647,3.9651,3.9643,3.9647,3.963,3.9629,3.9637,3.9629,3.9645,3.9626,3.9632,3.9632,3.9634,3.9681,3.9693,3.9725,3.9664,3.9665,3.9666,0,3.9684,3.9684,3.9702,3.9695,3.9696,3.9704,3.9704,3.9707,3.9703,3.9697,3.9697,3.9684,3.9692,3.9673,3.9685,3.9672,3.9674,3.9671,3.9671,3.9672,3.9651,3.9684,3.9735,3.9741,3.9672,3.9672,3.9671,0,3.9721,3.9725,3.9737,3.9736,3.9727,3.9733,3.973,3.9725,3.9726,3.9726,3.9727,3.9727,3.9728,3.9729,3.9716,3.9704,3.973,3.971,3.9726,3.9727,3.9733,3.9733,3.9786,3.9733,3.9733,3.9733,3.9733,0,3.9759,3.9771,3.9754,3.9761,3.9775,3.976,3.9773,3.9768,3.9763,3.977,3.9752,3.9759,3.9742,3.9746,3.9736,3.9748,3.9748,3.9744,3.9742,3.9746,3.9747,3.9747,3.9745,3.9734,3.9734,3.9734,3.9734,0,3.9802,3.9791,3.9803,3.9794,3.9792,3.9803,3.9795,3.9801,3.9794,3.9802,3.9803,3.979,3.9795,3.9783,3.9785,3.9778,3.9796,3.9789,3.9798,3.9796,3.9813,3.9812,3.9869,3.9876,3.9818,3.9819,3.9819,0,3.9828,3.9837,3.9829,3.9832,3.983,3.9835,3.9837,3.9822,3.9825,3.9821,3.9828,3.9831,3.9833,3.9841,3.9833,3.9834,3.9828,3.9848,3.9828,3.9833,3.9829,3.9829,3.9831,3.9852,3.9853,3.9854,3.9854,0,3.9874,3.9868,3.9871,3.9873,3.9876,3.9876,3.9875,3.9879,3.9863,3.9867,3.9872,3.9873,3.9876,3.9879,3.988,3.9876,3.9863,3.986,3.9864,3.9869,3.9874,3.9873,3.981,3.9859,3.9859,3.9858,3.9858,3.9858,3.991,3.9917,3.9913,3.9918,3.9916,3.9916,3.9922,3.9915,3.9919,3.992,3.9912,3.9918,3.9915,3.9914,3.9911,3.9917,3.9908,3.9913,3.9915,3.9916,3.992,3.9873,3.9916,3.9916,3.9916,3.9916,3.9916,0,3.9956,3.9953,3.9957,3.9957,3.996,3.9948,3.9946,3.995,3.9957,3.9954,3.9957,3.9963,3.9966,3.9958,3.996,3.9966,3.996,3.9967,3.9967,3.9967,3.9927,3.9924,3.9972,3.9972,3.9972,3.9972,3.9972,3.9972,3.9981,3.9993,3.9987,3.9999,3.9995,4.0002,4.0003,4.0003,4.0001,4.0008,4.0012,4.0006,4.0002,4.0004,4.0007,4.0004,4.0006,4.0016,4.0012,3.9975,3.9969,3.9964,3.9961,4.0016,4.0016,4.0051,4.0051,4.0051]}]]